If you wish to contribute or participate in the discussions about articles you are invited to join SKYbrary as a registered user

 Actions

Saint-Nazaire-Montoir Airport

From SKYbrary Wiki

LFRZ
Airport
ICAO: LFRZ – IATA: SNR
Summary
Name Saint-Nazaire-Montoir Airport
Region Europe
Territory France FR.gif
Location , Pays de la Loire
Serving St.-nazaire
Elevation 3.962 m
13 ft
13 ft3.962 m
Type medium airport
Coordinates 47° 18' 43.88" N, 2° 8' 57.05" W
Runways
Designator Length Width Surface ROPS
8/26 2400 m7,874.016 ft
45 m147.638 ft
ASP /


METAR
Observation LFRZ 220230Z AUTO 35002KT 9999 VV/// 14/13 Q1023 TEMPO 0800 BCFG BECMG NSC
Station St-Nazaire
Date/Time 22 July 2019 02:30:00
Wind direction 350°
Wind speed 02 kts
Lowest cloud amount nil significant cloud
Temperature 14°C
Dew point 13°C
Humidity 93%
QNH 1023 hPa
Weather condition n/a